• In United Kingdom
  • List of Countries
  • For 7 days
  • Water Temperature
  • Satellite Maps
  • Weather Map
  • Weather Widgets
  • user-avatar
    Login

    Hourly Weather Okoyo

    Today, 22 September, Saturday

    Time Temperature Precipitation Wind Pressure Humidity
    00:00 +27°C° 1.5 mm 2 mps 722 mmHg 79%
    01:00 +26°C° 0 mm 2 mps 722 mmHg 86%
    02:00 +26°C° 0.8 mm 2 mps 722 mmHg 87%
    03:00 +26°C° 0.8 mm 2 mps 722 mmHg 87%
    04:00 +25°C° 0.8 mm 2 mps 722 mmHg 88%
    05:00 +26°C° 0.1 mm 3 mps 722 mmHg 88%
    06:00 +26°C° 0.1 mm 3 mps 723 mmHg 87%
    07:00 +26°C° 0 mm 3 mps 723 mmHg 86%
    08:00 +27°C° 1 mm 3 mps 724 mmHg 81%
    09:00 +29°C° 1 mm 3 mps 724 mmHg 77%
    10:00 +30°C° 1 mm 3 mps 724 mmHg 72%
    11:00 +31°C° 0.4 mm 2 mps 723 mmHg 66%
    12:00 +32°C° 0.4 mm 2 mps 723 mmHg 60%
    13:00 +33°C° 0.4 mm 1 mps 722 mmHg 54%
    14:00 +33°C° 0 mm 1 mps 722 mmHg 54%
    15:00 +33°C° 0 mm 1 mps 721 mmHg 54%
    16:00 +33°C° 0 mm 1 mps 721 mmHg 53%
    17:00 +31°C° 0.2 mm 1 mps 721 mmHg 58%
    18:00 +30°C° 0.2 mm 1 mps 721 mmHg 63%
    19:00 +29°C° 0.2 mm 1 mps 722 mmHg 67%
    20:00 +28°C° 0.5 mm 1 mps 722 mmHg 73%
    21:00 +27°C° 0.5 mm 2 mps 722 mmHg 78%
    22:00 +26°C° 0.5 mm 2 mps 723 mmHg 84%
    23:00 +26°C° 0 mm 2 mps 722 mmHg 84%

    Tomorrow, 23 September, Sunday

    Time Temperature Precipitation Wind Pressure Humidity
    00:00 +26°C° 0 mm 2 mps 722 mmHg 85%
    01:00 +26°C° 0 mm 3 mps 722 mmHg 85%
    02:00 +25°C° 0.1 mm 2 mps 722 mmHg 86%
    03:00 +25°C° 0.1 mm 2 mps 722 mmHg 87%
    04:00 +25°C° 0.1 mm 2 mps 722 mmHg 88%
    05:00 +25°C° 0.3 mm 2 mps 723 mmHg 87%
    06:00 +25°C° 0.3 mm 3 mps 723 mmHg 86%
    07:00 +26°C° 0.3 mm 3 mps 724 mmHg 85%
    08:00 +27°C° 0.6 mm 3 mps 724 mmHg 80%
    09:00 +28°C° 0.6 mm 3 mps 724 mmHg 75%
    10:00 +29°C° 0.6 mm 3 mps 725 mmHg 70%
    11:00 +30°C° 0.6 mm 3 mps 724 mmHg 66%
    12:00 +31°C° 0.6 mm 3 mps 724 mmHg 62%
    13:00 +33°C° 0.6 mm 3 mps 723 mmHg 58%
    14:00 +31°C° 1.8 mm 2 mps 723 mmHg 63%
    15:00 +30°C° 1.8 mm 1 mps 722 mmHg 68%
    16:00 +29°C° 1.8 mm 1 mps 722 mmHg 73%
    17:00 +28°C° 0.5 mm 1 mps 722 mmHg 77%
    18:00 +28°C° 0.5 mm 1 mps 722 mmHg 82%
    19:00 +27°C° 0.5 mm 1 mps 723 mmHg 86%
    20:00 +26°C° 0 mm 1 mps 723 mmHg 87%
    21:00 +26°C° 0 mm 2 mps 723 mmHg 88%
    22:00 +26°C° 0 mm 2 mps 723 mmHg 89%
    23:00 +25°C° 0 mm 2 mps 723 mmHg 89%

    Day after tomorrow, 24 September, Monday

    Time Temperature Precipitation Wind Pressure Humidity
    00:00 +25°C° 0 mm 2 mps 722 mmHg 89%
    01:00 +25°C° 0 mm 2 mps 722 mmHg 90%
    02:00 +25°C° 0 mm 2 mps 722 mmHg 90%
    03:00 +25°C° 0 mm 2 mps 722 mmHg 91%
    04:00 +24°C° 0 mm 2 mps 722 mmHg 91%
    05:00 +25°C° 0 mm 2 mps 723 mmHg 90%
    06:00 +25°C° 0 mm 2 mps 723 mmHg 89%
    07:00 +25°C° 0 mm 3 mps 724 mmHg 88%
    08:00 +27°C° 0.3 mm 3 mps 724 mmHg 82%
    09:00 +29°C° 0.3 mm 3 mps 725 mmHg 76%
    10:00 +30°C° 0.3 mm 3 mps 725 mmHg 69%
    11:00 +31°C° 0.6 mm 3 mps 724 mmHg 66%
    12:00 +33°C° 0.6 mm 3 mps 723 mmHg 62%
    13:00 +33°C° 0.6 mm 3 mps 722 mmHg 58%
    14:00 +32°C° 1 mm 2 mps 722 mmHg 59%
    15:00 +32°C° 1 mm 2 mps 722 mmHg 59%
    16:00 +32°C° 1 mm 2 mps 721 mmHg 59%
    17:00 +30°C° 0.4 mm 2 mps 722 mmHg 66%
    18:00 +29°C° 0.4 mm 2 mps 722 mmHg 72%
    19:00 +27°C° 0.4 mm 1 mps 723 mmHg 78%
    20:00 +27°C° 1 mm 2 mps 723 mmHg 81%
    21:00 +26°C° 1 mm 2 mps 723 mmHg 83%
    22:00 +26°C° 1 mm 2 mps 724 mmHg 86%
    23:00 +26°C° 0 mm 2 mps 723 mmHg 86%

    25 September, Tuesday

    Time Temperature Precipitation Wind Pressure Humidity
    00:00 +26°C° 0 mm 2 mps 723 mmHg 87%
    01:00 +25°C° 0 mm 2 mps 723 mmHg 87%
    02:00 +25°C° 0 mm 2 mps 723 mmHg 88%
    03:00 +25°C° 0 mm 2 mps 722 mmHg 88%
    04:00 +25°C° 0 mm 2 mps 722 mmHg 89%
    05:00 +25°C° 0 mm 2 mps 723 mmHg 88%
    06:00 +25°C° 0 mm 2 mps 723 mmHg 87%
    07:00 +26°C° 0 mm 3 mps 724 mmHg 86%
    08:00 +27°C° 0.3 mm 3 mps 724 mmHg 81%
    09:00 +28°C° 0.3 mm 3 mps 725 mmHg 75%
    10:00 +30°C° 0.3 mm 3 mps 725 mmHg 69%
    11:00 +30°C° 0.6 mm 3 mps 724 mmHg 66%
    12:00 +31°C° 0.6 mm 3 mps 723 mmHg 63%
    13:00 +32°C° 0.6 mm 2 mps 722 mmHg 60%
    14:00 +31°C° 1.1 mm 2 mps 722 mmHg 62%
    15:00 +31°C° 1.1 mm 1 mps 722 mmHg 65%
    16:00 +30°C° 1.1 mm 1 mps 721 mmHg 67%
    17:00 +29°C° 1.3 mm 1 mps 722 mmHg 72%
    18:00 +28°C° 1.3 mm 1 mps 722 mmHg 78%
    19:00 +27°C° 1.3 mm 1 mps 723 mmHg 84%
    20:00 +26°C° 0.3 mm 1 mps 723 mmHg 85%
    21:00 +26°C° 0.3 mm 2 mps 724 mmHg 86%
    22:00 +25°C° 0.3 mm 2 mps 724 mmHg 87%
    23:00 +25°C° 0 mm 2 mps 723 mmHg 87%

    26 September, Wednesday

    Time Temperature Precipitation Wind Pressure Humidity
    00:00 +25°C° 0 mm 2 mps 723 mmHg 88%
    01:00 +25°C° 0 mm 2 mps 722 mmHg 88%
    02:00 +25°C° 0 mm 2 mps 722 mmHg 88%
    03:00 +25°C° 0 mm 2 mps 722 mmHg 88%
    04:00 +24°C° 0 mm 2 mps 722 mmHg 88%
    05:00 +25°C° 0 mm 2 mps 723 mmHg 87%
    06:00 +25°C° 0 mm 2 mps 723 mmHg 87%
    07:00 +25°C° 0 mm 2 mps 724 mmHg 86%
    08:00 +26°C° 0 mm 2 mps 724 mmHg 82%
    09:00 +27°C° 0 mm 2 mps 725 mmHg 78%
    10:00 +28°C° 0 mm 2 mps 725 mmHg 73%
    11:00 +30°C° 0.2 mm 2 mps 724 mmHg 68%
    12:00 +31°C° 0.2 mm 2 mps 723 mmHg 63%
    13:00 +32°C° 0.2 mm 2 mps 722 mmHg 57%
    14:00 +32°C° 0.3 mm 2 mps 722 mmHg 55%
    15:00 +33°C° 0.3 mm 1 mps 722 mmHg 53%
    16:00 +33°C° 0.3 mm 1 mps 721 mmHg 51%
    17:00 +31°C° 0.3 mm 1 mps 722 mmHg 57%
    18:00 +30°C° 0.3 mm 1 mps 722 mmHg 64%
    19:00 +28°C° 0.3 mm 1 mps 722 mmHg 70%
    20:00 +28°C° 0 mm 1 mps 723 mmHg 73%
    21:00 +27°C° 0 mm 2 mps 723 mmHg 77%
    22:00 +26°C° 0 mm 2 mps 723 mmHg 80%
    23:00 +26°C° 0 mm 2 mps 723 mmHg 82%

    27 September, Thursday

    Time Temperature Precipitation Wind Pressure Humidity
    00:00 +26°C° 0 mm 2 mps 722 mmHg 83%
    01:00 +25°C° 0 mm 2 mps 721 mmHg 85%
    02:00 +25°C° 0 mm 2 mps 722 mmHg 86%
    03:00 +25°C° 0 mm 2 mps 722 mmHg 87%
    04:00 +25°C° 0 mm 2 mps 722 mmHg 88%
    05:00 +25°C° 0.1 mm 2 mps 723 mmHg 87%
    06:00 +26°C° 0.1 mm 2 mps 723 mmHg 86%
    07:00 +26°C° 0.1 mm 2 mps 724 mmHg 85%
    08:00 +28°C° 0.4 mm 2 mps 724 mmHg 78%
    09:00 +29°C° 0.4 mm 2 mps 724 mmHg 71%
    10:00 +31°C° 0.4 mm 2 mps 724 mmHg 64%
    11:00 +31°C° 0.8 mm 2 mps 724 mmHg 62%
    12:00 +32°C° 0.8 mm 2 mps 723 mmHg 60%
    13:00 +32°C° 0.8 mm 2 mps 722 mmHg 57%
    14:00 +32°C° 0.5 mm 2 mps 722 mmHg 58%
    15:00 +32°C° 0.5 mm 1 mps 721 mmHg 59%
    16:00 +32°C° 0.5 mm 1 mps 721 mmHg 59%
    17:00 +30°C° 0.7 mm 1 mps 722 mmHg 66%
    18:00 +29°C° 0.7 mm 1 mps 722 mmHg 74%
    19:00 +27°C° 0.7 mm 1 mps 722 mmHg 81%
    20:00 +27°C° 0.3 mm 1 mps 723 mmHg 83%
    21:00 +26°C° 0.3 mm 1 mps 723 mmHg 85%
    22:00 +26°C° 0.3 mm 2 mps 723 mmHg 86%
    23:00 +26°C° 0 mm 2 mps 723 mmHg 88%
    Show more